星链-3971 (STARLINK-3971 )

导读 | 星芒AI

STARLINK-3971 是 SpaceX Starlink 项目中的一颗低轨通信卫星,属于第三代星链卫星(v1.5 或 v2 版本)。它于2023年发射,部署在约550公里高度的近地轨道,旨在为全球用户提供高速互联网服务。该卫星采用先进推进系统和激光通信技术,提升网络稳定性和数据传输效率,同时减少对地面基站的依赖。作为星链星座的一部分,STARLINK-3971 支持偏远地区互联网接入,助力实现全球宽带覆盖目标。

基本信息
目录编号:
52642
目录名称:
STARLINK-3971
国际标识:
2022-052AW
轨道中心:
EARTH
卫星名称:
星链-3971
卫星全名:
星链-3971 (STARLINK-3971 )
卫星状态:
在轨 (已飞行1271 天)
发射日期:
2022-05-14 UTC
国别 :
美国 (US)
星等 :
--
轨道信息
数据来源 国际轨道数据
星历时间: 2025-11-05T01:50:46+0800
7小时前
查看轨道信息
半长轴: 6917.882km
偏心率: 0.0001318
轨道倾角: 53.216°
近地点辐角 89.430°
升交点赤经 100.022°
平近点角 270.685°
近地点: 538.835km
远地点: 540.659km
周期: 95.438分钟
每日圈数: 15.088396
详细信息
固有亮度:
5
最大亮度:
2.5
卫星平台:
Starlink v1.5
覆盖范围:
全球
运营商:
太空探索技术公司
运营商所在国:
美国
制造商(研发单位):
太空探索技术公司
制造商所在国:
美国
使用方式:
暂无
卫星简介
星链(Starlink)计划是由太空探索技术公司(SpaceX)提出的一个巨型低轨卫星互联网星座项目,计划在2019年至2024年间在太空搭建由约1.2万颗卫星组成的“星链”网络,其中1584颗将部署在地球上空550千米处的近地轨道,并从2020年开始工作。该卫星仍在工作。
2D轨道图
3D轨道图
轨道高度分析图
轨道倾角分析图
轨道综合分析图
查看轨道综合分析图